Zurück zum Katalog

CZ-4 DEB

AktivPO
NORAD 26329·DEBRIS·🇨🇳 China

Gestartet Oct 14, 1999 von Taiyuan Satellite Launch Center

Loading…

Nächste Überflüge (nächste 24 Stunden)

TLE

AktuellSource: Space-Track

Epoche: Sep 14, 2026, 05:41 UTC

1 26329U 99057HN  26257.23698819  .00008398  00000-0  88125-3 0  9995
2 26329  98.2969 359.0441 0043509 227.1735 162.9925 14.89082716400599

Verfolge CZ-4 DEB in Echtzeit mit AllMySat

Download on the App Store